Overview Statistics Trail Chart Weather Telemetry Raw packets
 

This is the latest recevied weather packets stored in our database for station/object IR9AK-10. If no packets are shown the sender has not sent any weather packets the latest 10 day(s).

<< 51 52 53 54 55 56 57 >>
Time Temp. Humidity Pressure Rain* Wind** Luminosity Snow
1787806348 40.56° C 37% 1063.1 hPa - - - -
1787805749 40.56° C 37% 1062.3 hPa - - - -
1787805149 40° C 37% 1061.6 hPa - - - -
1787804551 40.56° C 37% 1061.5 hPa - - - -
1787803952 40.56° C 49% 1061.4 hPa - - - -
1787803352 41.11° C 39% 1061.4 hPa - - - -
1787802754 41.11° C 39% 1061.5 hPa - - - -
1787802154 41.11° C 40% 1061.4 hPa - - - -
1787801556 41.11° C 41% 1061.3 hPa - - - -
1787800958 41.11° C 42% 1061.2 hPa - - - -
1787800359 41.67° C 42% 1061.1 hPa - - - -
1787799761 41.11° C 41% 1060.9 hPa - - - -
1787799161 41.11° C 40% 1060.8 hPa - - - -
1787798561 41.11° C 42% 1060.8 hPa - - - -
1787797961 41.11° C 42% 1060.7 hPa - - - -
1787797362 41.11° C 41% 1060.8 hPa - - - -
1787796764 40.56° C 40% 1060.5 hPa - - - -
1787796164 40° C 34% 1060.4 hPa - - - -
1787795564 41.11° C 39% 1060.1 hPa - - - -
1787794965 41.11° C 40% 1059.9 hPa - - - -
1787794365 41.11° C 38% 1060 hPa - - - -
1787793766 41.11° C 39% 1060.1 hPa - - - -
1787793167 41.67° C 41% 1060.2 hPa - - - -
1787792602 41.67° C 43% 1060.5 hPa - - - -
1787792568 41.67° C 43% 1060.5 hPa - - - -

* Rain since midnight (hover to see other rain measurements)
** Current wind speed in m/s (hover to see current wind gust speed)